1494280800.11,2478,14.81,72840.3,-5.77,-6.47,-6.55,0,*6F
1494280801.3,2479,14.81,72836.5,-5.79,-6.47,-6.55,0,*60
1494280802.49,2480,14.81,72836.8,-5.79,-6.47,-6.47,0,*65
1494280803.71,2481,14.81,72842.8,-5.77,-6.43,-6.47,0,*6E
1494280804.9,2482,14.81,72840.8,-5.79,-6.47,-6.43,0,*63
1494280806.1,2483,14.81,72838.5,-5.79,-6.43,-6.47,0,*62
1494280807.29,2484,14.81,72842.8,-5.79,-6.47,-6.43,0,*65
1494280808.49,2485,14.81,72840.5,-5.79,-6.43,-6.47,0,*64
1494280809.7,2486,14.81,72836.8,-5.77,-6.47,-6.47,0,*6D
1494280810.89,2487,14.81,72838.5,-5.79,-6.47,-6.47,0,*62
1494280812.09,2488,14.81,72832.8,-5.79,-6.43,-6.47,0,*69
1494280813.28,2489,14.81,72836.3,-5.79,-6.47,-6.43,0,*68
1494280814.48,2490,14.81,72836.5,-5.79,-6.47,-6.43,0,*60
1494280815.67,2491,14.81,72838.0,-5.79,-6.47,-6.43,0,*61
1494280816.86,2492,14.81,72838.8,-5.79,-6.43,-6.43,0,*66
1494280818.06,2493,14.81,72840.8,-5.79,-6.43,-6.47,0,*63
1494280819.25,2494,14.81,72840.3,-5.79,-6.43,-6.35,0,*61
1494280820.48,2495,14.81,72838.3,-5.77,-6.35,-6.35,0,*6F
1494280821.69,2496,14.81,72842.8,-5.77,-6.47,-6.35,0,*69
1494280822.91,2497,14.81,72844.8,-5.77,-6.43,-6.35,0,*6C
1494280824.13,2498,14.81,72842.3,-5.77,-6.43,-6.35,0,*63
1494280825.33,2499,14.81,72846.0,-5.79,-6.35,-6.43,0,*6C
1494280826.55,2500,14.81,72844.0,-5.77,-6.43,-6.35,0,*63
1494280827.77,2501,14.81,72842.0,-5.77,-6.43,-6.43,0,*63
1494280828.99,2502,14.81,72842.5,-5.77,-6.35,-6.35,0,*60
1494280830.19,2503,14.81,72844.8,-5.79,-6.35,-6.31,0,*6B
1494280831.41,2504,14.81,72840.0,-5.77,-6.31,-6.35,0,*62
1494280832.61,2505,14.75,72842.5,-5.79,-6.35,-6.31,0,*6D
1494280833.83,2506,14.81,72842.0,-5.77,-6.35,-6.31,0,*60
1494280835.05,2507,14.81,72846.3,-5.77,-6.43,-6.35,0,*64
1494280836.27,2508,14.75,72840.5,-5.77,-6.43,-6.35,0,*6B
1494280837.49,2509,14.81,72844.0,-5.77,-6.43,-6.35,0,*6A
1494280838.71,2510,14.81,72846.3,-5.77,-6.35,-6.35,0,*63
1494280839.91,2511,14.81,72846.0,-5.79,-6.31,-6.35,0,*68
1494280841.13,2512,14.81,72842.3,-5.77,-6.43,-6.35,0,*60
1494280842.35,2513,14.81,72848.0,-5.77,-6.35,-6.31,0,*64
1494280843.55,2514,14.81,72850.3,-5.75,-6.39,-6.31,0,*6D
1494280844.74,2515,14.75,72842.5,-5.75,-6.31,-6.31,0,*64
1494280845.94,2516,14.81,72844.8,-5.79,-6.43,-6.47,0,*6F
1494280847.13,2517,14.81,72840.8,-5.75,-6.39,-6.43,0,*6B
1494280848.32,2518,14.81,72844.5,-5.75,-6.43,-6.39,0,*64
1494280849.52,2519,14.81,72846.5,-5.75,-6.43,-6.43,0,*68
1494280850.73,2520,14.81,72844.0,-5.77,-6.47,-6.35,0,*65
1494280851.95,2521,14.81,72844.5,-5.77,-6.43,-6.47,0,*65
1494280853.17,2522,14.75,72844.0,-5.77,-6.47,-6.43,0,*66
1494280854.39,2523,14.81,72850.0,-5.77,-6.43,-6.35,0,*62
1494280855.6,2524,14.75,72838.0,-5.77,-6.43,-6.43,0,*64
1494280856.82,2525,14.81,72832.8,-5.77,-6.59,-6.55,0,*69
1494280858.04,2526,14.81,72836.8,-5.77,-6.55,-6.55,0,*66
1494280859.26,2527,14.75,72838.5,-5.77,-6.55,-6.47,0,*64
1494280860.48,2528,14.81,72842.5,-5.77,-6.47,-6.47,0,*68
1494280861.67,2529,14.81,72836.5,-5.79,-6.47,-6.43,0,*63
1494280862.86,2530,14.81,72838.3,-5.79,-6.47,-6.47,0,*6F
1494280864.08,2531,14.81,72836.3,-5.77,-6.43,-6.43,0,*60
1494280865.3,2532,14.81,72836.0,-5.77,-6.43,-6.43,0,*63
1494280866.49,2533,14.81,72838.3,-5.75,-6.43,-6.39,0,*6D
1494280867.71,2534,14.81,72840.5,-5.77,-6.43,-6.43,0,*65
1494280868.93,2535,14.81,72842.8,-5.77,-6.43,-6.35,0,*65
1494280870.14,2536,14.81,72844.5,-5.77,-6.43,-6.43,0,*67
1494280871.36,2537,14.75,72848.5,-5.77,-6.43,-6.47,0,*62
1494280872.56,2538,14.81,72848.5,-5.79,-6.43,-6.43,0,*67
1494280873.77,2539,14.81,72850.0,-5.77,-6.43,-6.43,0,*68
1494280875.0,2540,14.81,72848.3,-5.77,-6.35,-6.35,0,*66
1494280876.19,2541,14.81,72846.0,-5.75,-6.39,-6.39,0,*65
1494280877.4,2542,14.81,72846.5,-5.77,-6.43,-6.43,0,*64
1494280878.59,2543,14.75,72846.0,-5.75,-6.39,-6.39,0,*67
1494280879.81,2544,14.75,72846.8,-5.77,-6.43,-6.43,0,*62
1494280881.03,2545,14.81,72850.5,-5.77,-6.43,-6.47,0,*67
1494280882.22,2546,14.81,72848.8,-5.75,-6.43,-6.43,0,*62
1494280883.42,2547,14.75,72842.3,-5.75,-6.43,-6.51,0,*60
1494280884.63,2548,14.81,72840.0,-5.77,-6.47,-6.55,0,*6D
1494280885.85,2549,14.75,72840.3,-5.77,-6.55,-6.59,0,*63
1494280887.05,2550,14.81,72846.5,-5.75,-6.55,-6.51,0,*61
1494280888.25,2551,14.81,72846.0,-5.75,-6.51,-6.51,0,*64
1494280889.47,2552,14.81,72840.8,-5.77,-6.55,-6.55,0,*65
1494280890.68,2553,14.75,72842.3,-5.77,-6.55,-6.55,0,*64
1494280891.9,2554,14.75,72836.5,-5.77,-6.47,-6.47,0,*63
1494280893.12,2555,14.75,72832.5,-5.77,-6.47,-6.47,0,*62
1494280894.33,2556,14.75,72834.5,-5.77,-6.47,-6.43,0,*65
1494280895.55,2557,14.81,72840.8,-5.77,-6.47,-6.43,0,*64
1494280896.77,2558,14.75,72840.3,-5.77,-6.43,-6.47,0,*6B
1494280897.98,2559,14.81,72842.8,-5.77,-6.43,-6.43,0,*6E
1494280899.2,2560,14.75,72842.3,-5.77,-6.43,-6.43,0,*64
1494280900.42,2561,14.75,72840.8,-5.77,-6.43,-6.43,0,*65
1494280901.64,2562,14.75,72840.5,-5.77,-6.43,-6.43,0,*66
1494280902.86,2563,14.81,72842.5,-5.77,-6.43,-6.43,0,*67
1494280904.08,2564,14.75,72844.3,-5.77,-6.43,-6.35,0,*61
1494280905.27,2565,14.75,72848.3,-5.75,-6.39,-6.31,0,*6B
1494280906.46,2566,14.75,72846.8,-5.75,-6.39,-6.39,0,*60
1494280907.66,2567,14.75,72846.5,-5.75,-6.31,-6.31,0,*61
1494280908.88,2568,14.75,72848.5,-5.77,-6.43,-6.35,0,*6D
1494280910.1,2569,14.75,72844.3,-5.77,-6.35,-6.47,0,*68
1494280911.32,2570,14.81,72848.0,-5.77,-6.43,-6.43,0,*65
1494280912.53,2571,14.81,72846.8,-5.77,-6.47,-6.47,0,*64
1494280913.73,2572,14.75,72840.5,-5.75,-6.43,-6.51,0,*66
1494280914.93,2573,14.75,72828.3,-5.75,-6.51,-6.51,0,*64
1494280916.14,2574,14.75,72826.5,-5.77,-6.59,-6.59,0,*61
1494280917.36,2575,14.75,72828.8,-5.77,-6.55,-6.59,0,*6C
1494280918.58,2576,14.75,72828.5,-5.77,-6.55,-6.55,0,*63
1494280919.8,2577,14.75,72830.8,-5.77,-6.55,-6.43,0,*65
1494280921.02,2578,14.75,72834.0,-5.77,-6.55,-6.47,0,*6E
1494280922.24,2579,14.75,72830.8,-5.77,-6.47,-6.55,0,*6F
1494280923.45,2580,14.75,72838.0,-5.77,-6.43,-6.43,0,*6A
1494280924.67,2581,14.75,72840.0,-5.77,-6.43,-6.43,0,*6B
1494280925.89,2582,14.81,72844.5,-5.77,-6.47,-6.47,0,*68
1494280927.11,2583,14.75,72836.8,-5.77,-6.35,-6.43,0,*68
1494280928.33,2584,14.75,72840.5,-5.77,-6.43,-6.43,0,*6E
1494280929.55,2585,14.81,72842.5,-5.77,-6.35,-6.43,0,*6E
1494280930.77,2586,14.75,72840.3,-5.77,-6.35,-6.43,0,*6D
1494280931.99,2587,14.75,72840.0,-5.77,-6.43,-6.35,0,*6C
1494280933.21,2588,14.81,72844.3,-5.77,-6.43,-6.31,0,*67
1494280934.43,2589,14.75,72842.0,-5.77,-6.43,-6.43,0,*63
1494280935.65,2590,14.75,72842.5,-5.77,-6.43,-6.35,0,*6A
1494280936.87,2591,14.81,72844.0,-5.77,-6.35,-6.35,0,*6A
1494280938.09,2592,14.75,72844.8,-5.75,-6.27,-6.31,0,*6C
1494280939.29,2593,14.75,72842.0,-5.75,-6.31,-6.31,0,*6A
1494280940.5,2594,14.75,72840.3,-5.75,-6.31,-6.27,0,*6A
1494280941.7,2595,14.75,72842.0,-5.75,-6.31,-6.31,0,*6C
1494280942.92,2596,14.75,72842.5,-5.77,-6.43,-6.43,0,*6D
1494280944.11,2597,14.81,72840.8,-5.75,-6.39,-6.39,0,*6E
1494280945.3,2598,14.75,72838.3,-5.75,-6.43,-6.43,0,*61
1494280946.49,2599,14.75,72838.0,-5.75,-6.39,-6.39,0,*60
1494280947.68,2600,14.75,72842.3,-5.75,-6.43,-6.39,0,*6E
1494280948.88,2601,14.75,72840.5,-5.75,-6.43,-6.43,0,*62
1494280950.06,2602,14.75,72836.5,-5.75,-6.39,-6.39,0,*61
1494280951.25,2603,14.75,72840.3,-5.75,-6.43,-6.39,0,*6D
1494280952.44,2604,14.75,72842.0,-5.75,-6.39,-6.43,0,*6A
1494280953.64,2605,14.75,72844.3,-5.75,-6.43,-6.43,0,*66
1494280954.83,2606,14.75,72836.5,-5.75,-6.43,-6.39,0,*68
1494280956.05,2607,14.75,72830.5,-5.73,-6.43,-6.51,0,*61
1494280957.25,2608,14.75,72824.5,-5.75,-6.51,-6.51,0,*6B
1494280958.45,2609,14.75,72818.0,-5.75,-6.51,-6.51,0,*6A
1494280959.67,2610,14.75,72822.0,-5.73,-6.51,-6.43,0,*67
1494280960.86,2611,14.75,72820.3,-5.75,-6.39,-6.39,0,*63
1494280962.05,2612,14.81,72822.8,-5.75,-6.43,-6.39,0,*6D
1494280963.24,2613,14.75,72824.8,-5.75,-6.39,-6.39,0,*61
1494280964.45,2614,14.75,72830.8,-5.73,-6.39,-6.39,0,*60
1494280965.64,2615,14.75,72832.3,-5.75,-6.39,-6.39,0,*67
1494280966.83,2616,14.75,72826.8,-5.75,-6.31,-6.31,0,*64
1494280968.03,2617,14.75,72836.0,-5.75,-6.31,-6.31,0,*65
1494280969.25,2618,14.75,72834.8,-5.77,-6.35,-6.43,0,*69
1494280970.47,2619,14.75,72832.8,-5.77,-6.47,-6.43,0,*6D
1494280971.66,2620,14.75,72832.0,-5.75,-6.43,-6.43,0,*61
1494280972.85,2621,14.75,72832.3,-5.75,-6.39,-6.39,0,*60
1494280974.04,2622,14.81,72832.5,-5.75,-6.43,-6.39,0,*6E
1494280975.23,2623,14.75,72830.3,-5.75,-6.43,-6.39,0,*6F
1494280976.42,2624,14.75,72828.0,-5.75,-6.39,-6.43,0,*68
1494280977.62,2625,14.81,72832.0,-5.75,-6.43,-6.43,0,*64
1494280978.84,2626,14.75,72824.0,-5.73,-6.51,-6.43,0,*62
1494280980.03,2627,14.75,72824.8,-5.75,-6.51,-6.39,0,*68
1494280981.23,2628,14.75,72824.0,-5.75,-6.39,-6.51,0,*67
1494280982.42,2629,14.75,72822.8,-5.75,-6.43,-6.43,0,*68
1494280983.61,2630,14.75,72826.8,-5.75,-6.39,-6.43,0,*6D
1494280984.81,2631,14.75,72826.0,-5.75,-6.43,-6.43,0,*61
1494280986.0,2632,14.75,72824.3,-5.75,-6.39,-6.39,0,*62
1494280987.21,2633,14.75,72828.8,-5.73,-6.39,-6.43,0,*68
1494280988.4,2634,14.75,72832.3,-5.75,-6.39,-6.39,0,*64
1494280989.6,2635,14.75,72830.8,-5.75,-6.43,-6.31,0,*60
1494280990.81,2636,14.81,72832.3,-5.73,-6.39,-6.39,0,*60
1494280992.0,2637,14.81,72834.3,-5.75,-6.43,-6.43,0,*67
1494280993.19,2638,14.75,72826.5,-5.75,-6.31,-6.39,0,*60
1494280994.38,2639,14.75,72834.0,-5.75,-6.31,-6.39,0,*61
1494280995.57,2640,14.75,72826.3,-5.75,-6.39,-6.39,0,*67
1494280996.76,2641,14.81,72832.0,-5.75,-6.39,-6.39,0,*66
1494280997.95,2642,14.81,72834.5,-5.75,-6.39,-6.39,0,*65
1494280999.16,2643,14.75,72832.5,-5.73,-6.39,-6.39,0,*62
1494281000.38,2644,14.75,72834.5,-5.75,-6.43,-6.27,0,*61
1494281001.59,2645,14.75,72832.3,-5.75,-6.27,-6.31,0,*65
1494281002.79,2646,14.75,72828.5,-5.75,-6.31,-6.31,0,*61
1494281003.99,2647,14.75,72828.5,-5.75,-6.31,-6.31,0,*60
1494281005.21,2648,14.75,72830.5,-5.73,-6.31,-6.31,0,*69
1494281006.43,2649,14.75,72832.8,-5.73,-6.31,-6.31,0,*68
1494281007.65,2650,14.75,72832.3,-5.75,-6.31,-6.27,0,*61
1494281008.85,2651,14.81,72834.8,-5.75,-6.31,-6.31,0,*67
1494281010.06,2652,14.75,72828.8,-5.75,-6.31,-6.27,0,*63
1494281011.28,2653,14.81,72828.5,-5.75,-6.31,-6.27,0,*62
1494281012.52,2654,14.75,72824.3,-5.75,-6.27,-6.27,0,*62
1494281013.74,2655,14.75,72828.3,-5.75,-6.31,-6.27,0,*64
1494281014.93,2656,14.75,72830.3,-5.75,-6.31,-6.31,0,*60
1494281016.13,2657,14.75,72824.3,-5.75,-6.31,-6.31,0,*61
1494281017.35,2658,14.75,72826.0,-5.75,-6.27,-6.31,0,*69
1494281018.57,2659,14.75,72826.5,-5.75,-6.27,-6.31,0,*68
1494281019.79,2660,14.75,72828.0,-5.73,-6.31,-6.31,0,*63
1494281021.01,2661,14.75,72830.5,-5.73,-6.31,-6.31,0,*62
1494281022.25,2662,14.75,72822.8,-5.73,-6.43,-6.27,0,*63
1494281023.44,2663,14.75,72826.0,-5.75,-6.39,-6.31,0,*6E
1494281024.66,2664,14.75,72828.0,-5.73,-6.39,-6.31,0,*6F
1494281025.9,2665,14.75,72828.3,-5.73,-6.31,-6.27,0,*61
1494281027.14,2666,14.75,72830.0,-5.73,-6.27,-6.31,0,*62
1494281028.34,2667,14.75,72824.3,-5.75,-6.31,-6.31,0,*62
1494281029.56,2668,14.75,72824.3,-5.73,-6.31,-6.31,0,*6B
1494281030.78,2669,14.75,72824.8,-5.75,-6.31,-6.27,0,*6B
1494281031.98,2670,14.75,72822.5,-5.75,-6.31,-6.31,0,*64
1494281033.17,2671,14.75,72828.0,-5.75,-6.31,-6.31,0,*65
1494281034.39,2672,14.75,72834.8,-5.75,-6.27,-6.31,0,*61
1494281035.59,2673,14.75,72830.5,-5.75,-6.31,-6.31,0,*67
1494281036.78,2674,14.75,72832.0,-5.75,-6.39,-6.31,0,*68
1494281038.0,2675,14.75,72838.8,-5.73,-6.39,-6.39,0,*67
1494281039.21,2676,14.75,72826.3,-5.73,-6.39,-6.39,0,*64
1494281040.39,2677,14.75,72822.0,-5.75,-6.39,-6.39,0,*63
1494281041.61,2678,14.75,72822.0,-5.73,-6.39,-6.31,0,*62
1494281042.83,2679,14.75,72816.5,-5.73,-6.39,-6.31,0,*63
1494281044.05,2680,14.75,72824.5,-5.73,-6.39,-6.31,0,*65
1494281045.27,2681,14.75,72828.8,-5.73,-6.31,-6.31,0,*6C
1494281046.51,2682,14.75,72826.8,-5.73,-6.27,-6.31,0,*68
1494281047.73,2683,14.75,72830.0,-5.75,-6.31,-6.27,0,*6F
1494281048.92,2684,14.75,72832.8,-5.75,-6.31,-6.31,0,*6F
1494281050.14,2685,14.75,72832.8,-5.75,-6.27,-6.31,0,*69
1494281051.38,2686,14.75,72828.5,-5.73,-6.39,-6.27,0,*64
1494281052.6,2687,14.75,72834.0,-5.73,-6.31,-6.31,0,*6A
1494281053.8,2688,14.75,72832.5,-5.75,-6.31,-6.31,0,*63
1494281055.01,2689,14.75,72834.8,-5.73,-6.39,-6.39,0,*64
1494281056.22,2690,14.75,72834.0,-5.75,-6.39,-6.27,0,*65
1494281057.42,2691,14.75,72832.5,-5.75,-6.39,-6.31,0,*63
1494281058.65,2692,14.75,72830.8,-5.73,-6.39,-6.27,0,*61
1494281059.87,2693,14.75,72830.5,-5.73,-6.31,-6.31,0,*6F
1494281061.11,2694,14.75,72832.0,-5.73,-6.39,-6.27,0,*67
1494281062.33,2695,14.75,72832.0,-5.73,-6.31,-6.31,0,*69
1494281063.57,2696,14.75,72832.8,-5.73,-6.31,-6.27,0,*6D
1494281064.79,2697,14.75,72832.8,-5.73,-6.31,-6.31,0,*6B
1494281066.01,2698,14.75,72826.8,-5.73,-6.39,-6.31,0,*6C
1494281067.25,2699,14.75,72832.3,-5.73,-6.27,-6.39,0,*6A
1494281068.44,2700,14.75,72832.8,-5.75,-6.31,-6.31,0,*62
1494281069.7,2701,14.75,72832.8,-5.73,-6.27,-6.27,0,*65
1494281070.95,2702,14.75,72834.5,-5.73,-6.31,-6.27,0,*61
1494281072.17,2703,14.75,72830.3,-5.73,-6.31,-6.31,0,*67
1494281073.39,2704,14.75,72834.5,-5.73,-6.31,-6.31,0,*60
1494281074.61,2705,14.75,72834.8,-5.73,-6.31,-6.31,0,*61
1494281075.85,2706,14.75,72832.3,-5.73,-6.31,-6.27,0,*65
1494281077.07,2707,14.75,72832.8,-5.73,-6.31,-6.31,0,*63
1494281078.31,2708,14.75,72836.0,-5.73,-6.31,-6.27,0,*6B
1494281079.57,2709,14.75,72834.8,-5.73,-6.27,-6.27,0,*6D
1494281080.82,2710,14.75,72834.8,-5.71,-6.23,-6.27,0,*63
1494281082.05,2711,14.75,72836.0,-5.71,-6.23,-6.23,0,*66
1494281083.29,2712,14.75,72832.5,-5.71,-6.23,-6.23,0,*65
1494281084.53,2713,14.75,72836.0,-5.71,-6.23,-6.23,0,*64
1494281085.77,2714,14.75,72834.5,-5.71,-6.27,-6.23,0,*67
1494281087.01,2715,14.75,72836.8,-5.71,-6.23,-6.23,0,*62
1494281088.25,2716,14.75,72838.3,-5.71,-6.23,-6.23,0,*61
1494281089.49,2717,14.75,72838.3,-5.71,-6.23,-6.23,0,*60
1494281090.73,2718,14.75,72836.0,-5.71,-6.23,-6.27,0,*6B
1494281091.99,2719,14.75,72842.0,-5.73,-6.27,-6.27,0,*6C
1494281093.23,2720,14.75,72836.8,-5.71,-6.23,-6.23,0,*64
1494281094.47,2721,14.75,72840.5,-5.71,-6.23,-6.23,0,*65
1494281095.71,2722,14.75,72840.8,-5.71,-6.23,-6.27,0,*62
1494281096.95,2723,14.75,72838.0,-5.71,-6.23,-6.23,0,*67
1494281098.2,2724,14.75,72842.5,-5.71,-6.27,-6.27,0,*60
1494281099.43,2725,14.75,72840.0,-5.71,-6.23,-6.23,0,*61
1494281100.67,2726,14.75,72842.5,-5.71,-6.27,-6.23,0,*66
1494281101.92,2727,14.69,72836.0,-5.71,-6.19,-6.27,0,*6E
1494281103.19,2728,14.75,72840.3,-5.69,-6.23,-6.19,0,*6C
1494281104.43,2729,14.75,72840.3,-5.71,-6.23,-6.27,0,*69
1494281105.67,2730,14.75,72840.0,-5.71,-6.23,-6.27,0,*61
1494281106.94,2731,14.75,72838.5,-5.69,-6.23,-6.19,0,*64
1494281108.18,2732,14.75,72836.3,-5.71,-6.27,-6.23,0,*63
1494281109.41,2733,14.75,72838.3,-5.71,-6.27,-6.23,0,*62
1494281110.65,2734,14.75,72842.5,-5.71,-6.27,-6.27,0,*61
1494281111.9,2735,14.75,72842.5,-5.71,-6.19,-6.27,0,*6D
1494281113.14,2736,14.75,72840.8,-5.71,-6.23,-6.27,0,*67
1494281114.38,2737,14.75,72840.3,-5.71,-6.27,-6.27,0,*62
1494281115.62,2738,14.75,72842.5,-5.71,-6.23,-6.27,0,*69
1494281116.87,2739,14.75,72844.5,-5.69,-6.31,-6.19,0,*6F
1494281118.09,2740,14.75,72844.3,-5.71,-6.35,-6.27,0,*61
1494281119.33,2741,14.75,72848.8,-5.71,-6.27,-6.27,0,*63
1494281120.57,2742,14.75,72846.8,-5.71,-6.27,-6.27,0,*60
1494281121.83,2743,14.75,72842.3,-5.69,-6.23,-6.23,0,*68
1494281123.07,2744,14.75,72838.3,-5.69,-6.31,-6.23,0,*6C
1494281124.3,2745,14.75,72836.8,-5.71,-6.35,-6.27,0,*64
1494281125.54,2746,14.75,72842.0,-5.69,-6.35,-6.23,0,*6A
1494281126.76,2747,14.75,72840.8,-5.69,-6.31,-6.31,0,*6C
1494281127.96,2748,14.69,72838.3,-5.71,-6.35,-6.31,0,*6E
1494281129.16,2749,14.75,72840.3,-5.71,-6.35,-6.35,0,*6B
1494281130.38,2750,14.75,72836.5,-5.69,-6.31,-6.31,0,*6A
1494281131.58,2751,14.75,72840.3,-5.71,-6.39,-6.35,0,*6E
1494281132.77,2752,14.75,72842.0,-5.71,-6.39,-6.35,0,*6D
1494281133.99,2753,14.75,72840.8,-5.69,-6.31,-6.31,0,*69
1494281135.21,2754,14.75,72844.0,-5.69,-6.35,-6.43,0,*6F
1494281136.41,2755,14.75,72842.8,-5.71,-6.39,-6.47,0,*6F
1494281137.6,2756,14.75,72842.0,-5.71,-6.47,-6.47,0,*65
1494281138.82,2757,14.69,72838.3,-5.69,-6.47,-6.47,0,*6D
1494281140.02,2758,14.75,72842.5,-5.71,-6.51,-6.51,0,*6B
1494281141.22,2759,14.75,72842.0,-5.71,-6.47,-6.51,0,*6D
1494281142.42,2760,14.75,72842.0,-5.71,-6.51,-6.47,0,*67
1494281143.64,2761,14.69,72840.0,-5.73,-6.51,-6.51,0,*63
1494281144.84,2762,14.75,72844.3,-5.71,-6.47,-6.47,0,*62
1494281146.03,2763,14.69,72838.5,-5.71,-6.47,-6.47,0,*63
1494281147.24,2764,14.75,72832.3,-5.71,-6.51,-6.47,0,*63
1494281148.45,2765,14.75,72826.0,-5.69,-6.47,-6.43,0,*68
1494281149.65,2766,14.75,72824.5,-5.71,-6.51,-6.51,0,*66
1494281150.85,2767,14.69,72818.3,-5.71,-6.51,-6.55,0,*63
1494281152.05,2768,14.69,72826.0,-5.71,-6.55,-6.55,0,*68
1494281153.27,2769,14.75,72826.5,-5.73,-6.55,-6.55,0,*6B
1494281154.46,2770,14.69,72826.5,-5.75,-6.55,-6.55,0,*65
1494281155.68,2771,14.69,72832.5,-5.73,-6.55,-6.55,0,*62
1494281156.89,2772,14.75,72834.3,-5.73,-6.59,-6.69,0,*62
1494281158.11,2773,14.75,72828.8,-5.73,-6.59,-6.59,0,*60
1494281159.31,2774,14.75,72828.3,-5.75,-6.59,-6.59,0,*61
1494281160.5,2775,14.69,72830.0,-5.75,-6.59,-6.59,0,*60
1494281161.72,2776,14.75,72834.5,-5.73,-6.59,-6.69,0,*66
1494281162.94,2777,14.69,72836.8,-5.73,-6.59,-6.59,0,*64
1494281164.15,2778,14.69,72836.3,-5.73,-6.59,-6.59,0,*6B
1494281165.37,2779,14.69,72830.5,-5.73,-6.59,-6.59,0,*6A
1494281166.57,2780,14.69,72834.8,-5.75,-6.59,-6.59,0,*6A
1494281167.76,2781,14.75,72840.3,-5.75,-6.59,-6.59,0,*6B
1494281168.96,2782,14.69,72840.5,-5.75,-6.59,-6.59,0,*68
1494281170.16,2783,14.69,72836.5,-5.75,-6.59,-6.55,0,*65
1494281171.35,2784,14.69,72818.3,-5.75,-6.55,-6.55,0,*6E
1494281172.54,2785,14.75,72818.5,-5.75,-6.55,-6.55,0,*6F
1494281173.73,2786,14.69,72822.5,-5.75,-6.69,-6.69,0,*6C
1494281174.92,2787,14.75,72830.5,-5.75,-6.59,-6.59,0,*6D
1494281176.18,2788,14.75,72824.5,-5.77,-6.63,-6.63,0,*60
1494281177.38,2789,14.75,72822.0,-5.75,-6.59,-6.59,0,*63
1494281178.57,2790,14.75,72822.8,-5.75,-6.59,-6.55,0,*67
1494281179.77,2791,14.69,72824.5,-5.75,-6.51,-6.55,0,*6E
1494281180.97,2792,14.69,72822.5,-5.75,-6.51,-6.55,0,*6D
1494281182.17,2793,14.69,72822.8,-5.75,-6.43,-6.51,0,*6B
1494281183.36,2794,14.75,72832.3,-5.75,-6.39,-6.43,0,*62
1494281184.55,2795,14.69,72832.3,-5.75,-6.39,-6.43,0,*63
1494281185.74,2796,14.75,72842.0,-5.75,-6.43,-6.43,0,*6D
1494281186.93,2797,14.69,72838.5,-5.75,-6.43,-6.39,0,*61
1494281188.13,2798,14.75,72828.3,-5.75,-6.43,-6.43,0,*63
1494281189.33,2799,14.69,72824.8,-5.75,-6.43,-6.51,0,*61
1494281190.52,2800,14.69,72822.8,-5.75,-6.55,-6.51,0,*69
1494281191.72,2801,14.69,72828.3,-5.75,-6.51,-6.51,0,*6C
1494281192.92,2802,14.75,72830.8,-5.75,-6.51,-6.51,0,*6F
1494281194.12,2803,14.69,72830.8,-5.75,-6.51,-6.51,0,*6E
1494281195.32,2804,14.69,72830.0,-5.75,-6.51,-6.51,0,*69
1494281196.52,2805,14.75,72834.3,-5.75,-6.51,-6.51,0,*68
1494281197.73,2806,14.69,72830.5,-5.73,-6.43,-6.39,0,*60
1494281198.93,2807,14.75,72842.8,-5.75,-6.43,-6.43,0,*6A
1494281200.11,2808,14.75,72840.5,-5.75,-6.39,-6.39,0,*65
1494281201.31,2809,14.75,72838.8,-5.75,-6.51,-6.39,0,*6A
1494281202.5,2810,14.69,72838.3,-5.75,-6.39,-6.39,0,*6C
1494281203.7,2811,14.69,72840.3,-5.75,-6.51,-6.43,0,*6E
1494281204.89,2812,14.69,72834.5,-5.75,-6.51,-6.55,0,*6A
1494281206.09,2813,14.69,72842.5,-5.75,-6.51,-6.43,0,*6C
1494281207.29,2814,14.69,72834.8,-5.75,-6.51,-6.55,0,*6C
1494281208.49,2815,14.75,72832.3,-5.75,-6.51,-6.51,0,*69
1494281209.68,2816,14.75,72832.3,-5.75,-6.55,-6.51,0,*6E
1494281210.88,2817,14.75,72836.8,-5.75,-6.51,-6.55,0,*6F
1494281212.08,2818,14.69,72834.3,-5.75,-6.55,-6.55,0,*64
1494281213.3,2819,14.69,72836.0,-5.73,-6.51,-6.55,0,*67
1494281214.5,2820,14.69,72832.0,-5.75,-6.51,-6.51,0,*6F
1494281215.7,2821,14.69,72826.8,-5.75,-6.51,-6.51,0,*6E
1494281216.92,2822,14.75,72832.0,-5.73,-6.43,-6.43,0,*6B
1494281218.11,2823,14.69,72832.5,-5.75,-6.43,-6.51,0,*6F
1494281219.31,2824,14.69,72834.3,-5.75,-6.43,-6.43,0,*6B
1494281220.52,2825,14.69,72832.5,-5.73,-6.43,-6.43,0,*6C
1494281221.72,2826,14.69,72832.8,-5.75,-6.39,-6.43,0,*64
1494281222.91,2827,14.69,72842.0,-5.75,-6.43,-6.43,0,*68
1494281224.1,2828,14.69,72834.8,-5.75,-6.39,-6.39,0,*67
1494281225.29,2829,14.69,72838.3,-5.75,-6.43,-6.39,0,*6B
1494281226.48,2830,14.69,72836.5,-5.75,-6.43,-6.39,0,*63
1494281227.67,2831,14.69,72842.3,-5.75,-6.43,-6.39,0,*62
1494281228.86,2832,14.69,72836.5,-5.75,-6.43,-6.39,0,*61
1494281230.05,2833,14.69,72832.8,-5.75,-6.39,-6.39,0,*6D
1494281231.24,2834,14.69,72834.0,-5.75,-6.43,-6.43,0,*6A
1494281232.44,2835,14.69,72836.0,-5.75,-6.43,-6.39,0,*66
1494281233.63,2836,14.69,72828.8,-5.75,-6.43,-6.43,0,*68
1494281234.83,2837,14.69,72834.8,-5.75,-6.43,-6.51,0,*6A
1494281236.02,2838,14.69,72834.3,-5.75,-6.43,-6.43,0,*66
1494281237.22,2839,14.69,72834.3,-5.75,-6.51,-6.39,0,*69
1494281238.41,2840,14.69,72840.5,-5.75,-6.51,-6.39,0,*67
1494281239.6,2841,14.69,72838.8,-5.75,-6.39,-6.39,0,*68
1494281240.79,2842,14.69,72840.0,-5.75,-6.39,-6.39,0,*6B
1494281242.0,2843,14.69,72844.5,-5.73,-6.39,-6.39,0,*6C
1494281243.18,2844,14.69,72842.8,-5.75,-6.39,-6.39,0,*6D
1494281244.38,2845,14.69,72838.0,-5.75,-6.43,-6.39,0,*61
1494281245.59,2846,14.69,72838.5,-5.73,-6.43,-6.51,0,*6A
1494281246.82,2847,14.69,72842.8,-5.73,-6.51,-6.55,0,*6C
1494281248.01,2848,14.69,72846.8,-5.75,-6.55,-6.55,0,*61
1494281249.21,2849,14.69,72842.5,-5.75,-6.51,-6.55,0,*64
1494281250.41,2850,14.69,72846.0,-5.75,-6.51,-6.55,0,*6C
1494281251.63,2851,14.69,72848.8,-5.73,-6.51,-6.55,0,*6B
1494281252.83,2852,14.69,72838.5,-5.75,-6.51,-6.55,0,*6E
1494281254.02,2853,14.69,72838.3,-5.75,-6.55,-6.55,0,*6B
1494281255.22,2854,14.69,72842.8,-5.75,-6.55,-6.51,0,*68
1494281256.41,2855,14.69,72844.8,-5.75,-6.55,-6.55,0,*6D
1494281257.61,2856,14.69,72836.5,-5.75,-6.51,-6.55,0,*6A
1494281258.8,2857,14.69,72836.5,-5.75,-6.55,-6.55,0,*6F
1494281260.0,2858,14.69,72832.8,-5.75,-6.55,-6.55,0,*60
1494281261.22,2859,14.69,72832.5,-5.77,-6.59,-6.55,0,*6F
1494281262.44,2860,14.69,72832.3,-5.77,-6.59,-6.59,0,*69
1494281263.64,2861,14.69,72832.5,-5.75,-6.51,-6.51,0,*6A
1494281264.85,2862,14.69,72824.8,-5.73,-6.55,-6.51,0,*6B
1494281266.05,2863,14.69,72824.8,-5.75,-6.51,-6.55,0,*6C
1494281267.28,2864,14.69,72828.5,-5.73,-6.51,-6.51,0,*69
1494281268.47,2865,14.69,72832.5,-5.75,-6.55,-6.55,0,*6E
1494281269.69,2866,14.69,72838.8,-5.77,-6.59,-6.59,0,*6F
1494281270.91,2867,14.69,72838.5,-5.77,-6.59,-6.59,0,*6E
1494281272.13,2868,14.69,72838.5,-5.77,-6.59,-6.55,0,*6D
1494281273.35,2869,14.69,72840.8,-5.77,-6.55,-6.55,0,*60
1494281274.56,2870,14.69,72840.5,-5.77,-6.59,-6.59,0,*68
1494281275.78,2871,14.69,72842.8,-5.77,-6.55,-6.55,0,*69
1494281277.0,2872,14.69,72842.0,-5.77,-6.55,-6.47,0,*69
1494281278.22,2873,14.69,72844.8,-5.77,-6.55,-6.47,0,*68
1494281279.44,2874,14.69,72848.8,-5.77,-6.55,-6.47,0,*6F
1494281280.66,2875,14.69,72844.5,-5.77,-6.55,-6.47,0,*6E
1494281281.88,2876,14.69,72846.8,-5.77,-6.55,-6.47,0,*6D
1494281283.1,2877,14.69,72840.8,-5.77,-6.55,-6.47,0,*6C
1494281284.31,2878,14.69,72840.3,-5.77,-6.55,-6.55,0,*60
1494281285.53,2879,14.69,72842.8,-5.77,-6.59,-6.47,0,*6E
1494281286.75,2880,14.69,72840.5,-5.77,-6.47,-6.47,0,*67
1494281287.96,2881,14.69,72842.0,-5.77,-6.47,-6.55,0,*65
1494281289.18,2882,14.69,72836.3,-5.77,-6.55,-6.55,0,*65
1494281290.4,2883,14.69,72840.8,-5.77,-6.55,-6.55,0,*64
1494281291.6,2884,14.69,72842.8,-5.79,-6.55,-6.55,0,*6D
1494281292.81,2885,14.69,72840.5,-5.77,-6.55,-6.47,0,*61
1494281294.03,2886,14.69,72842.3,-5.77,-6.47,-6.47,0,*61
1494281295.25,2887,14.69,72840.5,-5.77,-6.47,-6.43,0,*64
1494281296.46,2888,14.69,72836.8,-5.77,-6.47,-6.43,0,*6B
1494281297.68,2889,14.69,72840.3,-5.77,-6.47,-6.43,0,*6A
1494281298.9,2890,14.69,72846.0,-5.77,-6.47,-6.47,0,*66
1494281300.09,2891,14.69,72838.5,-5.75,-6.39,-6.43,0,*68
1494281301.28,2892,14.69,72838.8,-5.75,-6.39,-6.43,0,*6B
1494281302.47,2893,14.69,72834.0,-5.75,-6.43,-6.43,0,*67
1494281303.67,2894,14.69,72836.0,-5.75,-6.51,-6.51,0,*60
1494281304.89,2895,14.69,72838.0,-5.77,-6.55,-6.55,0,*63
1494281306.11,2896,14.69,72836.5,-5.77,-6.55,-6.47,0,*63
1494281307.33,2897,14.69,72828.8,-5.77,-6.43,-6.47,0,*65
1494281308.54,2898,14.69,72830.0,-5.77,-6.47,-6.43,0,*6A